Flag for China Weather past 2 weeks in Chengdu, Sichuan, China

Now
70 °F

Scattered clouds.


Feels Like: 70 °F
Forecast: 70 / 87 °F
Wind: 1 mph from North

Location: Chengdu Airport

Current Time: Sep 2, 2014 at 8:02:31 AM

Latest Report: Sep 2, 2014 at 7:00 AM


Visibility: N/A

Pressure: 29.95 "Hg

Humidity: 88%

Dew point: 66 °F

Location of ChengduLocation

Historic Weather in Chengdu — Graph

°F

Chengdu temperature yesterday

Maximum temperature yesterday: 79 °F (at 12:00 AM)
Minimum temperature yesterday: 72 °F (at 2:00 AM)
Average temperature yesterday: 74 °F

Past Weeks' High & Low Weather Summary

 TemperatureHumidityPressure
High91 °F (Aug 19, 5:00 PM)94% (Aug 18, 8:00 AM)30.01 "Hg (Aug 18, 8:00 AM)
Low66 °F (Aug 22, 3:00 AM)41% (Aug 31, 3:00 PM)29.71 "Hg (Aug 31, 4:00 PM)
Average76 °F76%29.89 "Hg
* Reported Aug 18 7:00 AM — Sep 2 7:00 AM, Chengdu, Weather by CustomWeather, © 2014

Note: Actual official high and low records may vary slightly from our data, if they occured in-between our weather recording intervals... More about our weather records

Advertising

Chengdu weather history for previous 24 hours

 ConditionsComfort  
Time TempWeatherWind HumidityBarometerVisibility
7:00 AM
Sep 2
70 °FScattered clouds.1 mph88%29.95 "HgN/A
6:00 AM70 °FPassing clouds.3 mph88%29.92 "HgN/A
5:00 AM70 °FPassing clouds.No wind88%29.92 "HgN/A
4:00 AM70 °FPassing clouds.1 mph88%29.92 "HgN/A
3:00 AM70 °FPassing clouds.3 mph83%29.92 "HgN/A
2:00 AM70 °FPassing clouds.3 mph88%29.92 "HgN/A
1:00 AM70 °FSprinkles. Passing clouds.1 mph83%29.95 "HgN/A
12:00 AM72 °FSprinkles. Passing clouds.3 mph83%29.95 "Hg5 mi
11:00 PM
Sep 1
73 °FSprinkles. Passing clouds.1 mph83%29.95 "Hg5 mi
10:00 PM73 °FPassing clouds.3 mph78%29.92 "HgN/A
9:00 PM75 °FPassing clouds.3 mph74%29.89 "HgN/A
8:00 PM73 °FPassing clouds.3 mph83%29.89 "HgN/A
7:00 PM75 °FScattered clouds.1 mph74%29.86 "HgN/A
6:00 PM77 °FScattered clouds.3 mph69%29.83 "HgN/A
5:00 PM77 °FScattered clouds.3 mph69%29.83 "HgN/A
4:00 PM77 °FPassing clouds.3 mph69%29.83 "HgN/A
3:00 PM77 °FPassing clouds.1 mph69%29.86 "HgN/A
2:00 PM77 °FScattered clouds.1 mph69%29.83 "HgN/A
1:00 PM77 °FScattered clouds.1 mph74%29.86 "HgN/A
12:00 PM75 °FSprinkles. Scattered clouds.6 mph74%29.86 "HgN/A
11:00 AM75 °FSprinkles. Scattered clouds.1 mph78%29.86 "HgN/A
10:00 AM72 °FScattered clouds.1 mph94%29.86 "HgN/A
9:00 AM72 °FScattered clouds.1 mph94%29.83 "Hg5 mi
8:00 AM72 °FSprinkles. Scattered clouds.1 mph88%29.83 "HgN/A
Weather by CustomWeather, © 2014

See weather overviewHow to use our weather pages